Miscellaneous Local Product
Issued by NWS North Platte, NE

Home | Current Version | Previous Version | Text Only | Print | Product List | Glossary On
Versions: 1 2 3 4 5 6 7 8 9 10 11 12 13 14 15 16 17 18 19 20 21 22 23 24 25 26 27 28 29 30 31 32 33 34 35 36 37 38 39 40 41 42 43 44 45 46 47 48 49 50
000
AXUS43 KLBF 031510
MISLBF


WESTERN AND NORTH CENTRAL NEBRASKA HOURLY WEATHER ROUNDUP
NATIONAL WEATHER SERVICE NORTH PLATTE NE
1000 AM CDT THU SEP 03 2015

NOTE: "FAIR" INDICATES FEW OR NO CLOUDS BELOW 12,000 FEET WITH NO
SIGNIFICANT WEATHER AND/OR OBSTRUCTIONS TO VISIBILITY.

NOTE: STATIONS NOT REPORTING VARIABLES SUCH AS SKY/WEATHER OR
PRESSURE ARE PROVIDED BY THE NEBRASKA DEPARTMENT OF
ROADS...RAWS...AND APRS NETWORKS...AND ARE NOT UNDER
NATIONAL WEATHER SERVICE QUALITY CONTROL.

...OBSERVATIONS IN AND NEAR THE EASTERN PANHANDLE OF NEBRASKA...

CITY           SKY/WX    TMP DP  RH WIND       PRES   REMARKS
PINE RIDGE     PTSUNNY   78  55  44 SW5       29.86S
CHADRON        MOSUNNY   80  51  36 CALM      29.85S
ALLIANCE       MOSUNNY   73  51  46 S5        29.91F
SIDNEY         MOSUNNY   79  47  32 NW7       29.96S
CRESCENT LAKE    N/A     78  61  55 W5          N/A
BIG SPRINGS      N/A     70  56  61 CALM        N/A
$$

...OBSERVATIONS IN NORTH CENTRAL NEBRASKA...

CITY           SKY/WX    TMP DP  RH WIND       PRES   REMARKS
VALENTINE      SUNNY     79  61  53 CALM      29.83S
THEDFORD       SUNNY     78  63  60 SE3       29.86S
AINSWORTH      SUNNY     82  66  58 SE5       29.84R
O`NEILL        SUNNY     75  67  75 S5        29.84R
ORD            SUNNY     77  62  59 S6        29.82S
BROKEN BOW     SUNNY     76  63  64 S6        29.84F
SPRINGVIEW       N/A     74  65  74 CALM        N/A
SARGENT          N/A     73  66  79 CALM        N/A
CHAMBERS         N/A     79  69  70 S3          N/A
EWING            N/A     75  66  74 S3          N/A
$$

...OBSERVATIONS IN SOUTHWEST NEBRASKA AND FAR NORTHEAST COLORADO...

CITY           SKY/WX    TMP DP  RH WIND       PRES   REMARKS
WRAY           CLOUDY    79  49  33 W3        29.90S
HOLYOKE        FAIR      79  54  41 NW5       29.90S
IMPERIAL       MOSUNNY   73  60  63 N7        29.87S
OGALLALA       MOSUNNY   72  62  71 CALM      29.88S
NORTH PLATTE   SUNNY     73  61  65 CALM      29.85S
MCCOOK         SUNNY     75  59  57 VRB3      29.84S
LEXINGTON      SUNNY     78  62  57 S10       29.83F
PAXTON           N/A     73  66  78 CALM        N/A
BRADY            N/A     73  63  72 CALM        N/A
CALLAWAY         N/A     76  68  77 S5          N/A
$$

...OBSERVATIONS IN CENTRAL LINCOLN COUNTY AREA...

CITY           SKY/WX    TMP DP  RH WIND       PRES   REMARKS
N.P. AIRPORT   SUNNY     73  61  65 CALM      29.85S
N.P. DOWNTOWN    N/A     74  63  69 CALM        N/A
N.P. HILLCREST   N/A     78  64  62 S3          N/A
$$

...SOME OBSERVATIONS FROM AROUND THE REGION...

CITY           SKY/WX    TMP DP  RH WIND       PRES   REMARKS
DENVER         CLOUDY    74  44  34 NW3       30.05R
LARAMIE        PTSUNNY   63  46  54 S8        30.17F
CHEYENNE       PTSUNNY   70  46  42 CALM      30.08F
SCOTTSBLUFF    MOSUNNY   73  54  51 W5        29.92F
RAPID CITY     MOSUNNY   77  55  46 VRB3      29.80S
PIERRE           N/A     77  64  64 MISG      29.73F
WINNER         FAIR      86  62  44 S8        29.79R
SIOUX FALLS    SUNNY     75  69  81 S8        29.85S
OMAHA          MOSUNNY   80  68  66 S14       29.87S
GRAND ISLAND   SUNNY     81  62  52 S13       29.84S
KANSAS CITY    PTSUNNY   81  69  67 SW8       29.97R
WICHITA        MOSUNNY   82  65  56 S15       29.94F
HAYS           SUNNY     82  57  42 S18G25    29.85F
LIBERAL        SUNNY     81  57  44 S17       29.92S
GOODLAND       MOSUNNY   80  46  30 NW6       29.89S
$$



USA.gov is the U.S. government's official web portal to all federal, state and local government web resources and services.